Flag for Switzerland Weather past 2 weeks in Uster, Zurich, Switzerland

Now
89 °F

Hot.


Feels Like: 91 °F
Forecast: 63 / 73 °F
Wind: 7 mph from Southwest

Location: Zurich Town / Ville.

Current Time: Jul 7, 2015 at 8:01:43 PM

Latest Report: Jul 7, 2015 at 7:00 PM


Visibility: N/A

Pressure: 29.70 "Hg

Humidity: 44%

Dew point: 65 °F

Location of UsterLocation

Historic Weather in Uster — Graph

°F

Uster temperature yesterday

Maximum temperature yesterday: 85 °F (at 5:00 PM)
Minimum temperature yesterday: 70 °F (at 8:00 AM)
Average temperature yesterday: 77 °F

Past Weeks' High & Low Weather Summary

 TemperatureHumidityPressure
High94 °F (Jul 7, 5:00 PM)96% (Jun 23, 6:00 AM)30.23 "Hg (Jun 23, 6:00 AM)
Low47 °F (Jun 24, 5:00 AM)26% (Jun 25, 8:00 PM)29.70 "Hg (Jun 22, 10:00 PM)
Average72 °F59%30.08 "Hg
* Reported Jun 22 7:00 PM — Jul 7 7:00 PM, Uster, Weather by CustomWeather, © 2015

Note: Actual official high and low records may vary slightly from our data, if they occured in-between our weather recording intervals... More about our weather records

Advertising

Uster weather history for previous 24 hours

 ConditionsComfort  
Time TempWeatherWind HumidityBarometerVisibility
7:00 PM
Tue, Jul 7
89 °FHot.7 mph44%29.70 "HgN/A
6:00 PM94 °FExtremely hot.6 mph36%29.71 "HgN/A
5:00 PM94 °FExtremely hot.5 mph33%29.73 "HgN/A
4:00 PM94 °FExtremely hot.8 mph30%29.77 "HgN/A
3:00 PM92 °FHot.5 mph42%29.80 "HgN/A
2:00 PM91 °FPassing clouds.7 mph45%29.83 "HgN/A
1:00 PM89 °FHot.8 mph48%29.85 "HgN/A
12:00 PM87 °FWarm.12 mph49%29.87 "HgN/A
11:00 AM84 °FWarm.9 mph57%29.89 "HgN/A
10:00 AM79 °FWarm.3 mph68%29.92 "HgN/A
9:00 AM75 °FMild.1 mph75%29.95 "HgN/A
8:00 AM73 °FMild.1 mph81%29.97 "HgN/A
7:00 AM71 °FMild.No wind88%29.98 "HgN/A
6:00 AM70 °FMild.1 mph89%29.98 "HgN/A
4:00 AM72 °FMild.1 mph83%29.98 "HgN/A
3:00 AM72 °FMild.3 mph81%30.00 "HgN/A
2:00 AM72 °FMild.1 mph81%30.01 "HgN/A
1:00 AM73 °FMild.1 mph80%30.02 "HgN/A
12:00 AM74 °FMild.1 mph77%30.02 "HgN/A
10:00 PM
Mon, Jul 6
77 °FWarm.5 mph69%30.02 "HgN/A
9:00 PM79 °FWarm.3 mph63%30.01 "HgN/A
8:00 PM82 °FWarm.3 mph59%30.01 "HgN/A
Weather by CustomWeather, © 2015

See weather overviewHow to use our weather pages